Mattoon, IL

7:39 AM CDT on September 22, 2019 (GMT -0500)
Coles County Memorial

Weather History for KMTO - May, 2019

Change the Weather History Date:

Thursday, May 23, 2019

  Actual Average Record
Temperature  
Mean Temperature 74 °F 65 °F  
Max Temperature 82 °F 76 °F 91 °F (1975)
Min Temperature 66 °F 55 °F 38 °F (1961)
Degree Days  
Heating Degree Days 0 3  
Month to date heating degree days 130 111  
Since 1 July heating degree days 5517 5373  
Cooling Degree Days 9 3  
Month to date cooling degree days 46 45  
Year to date cooling degree days 51 59  
Growing Degree Days 24 (Base 50)    
Moisture  
Dew Point 66 °F    
Average Humidity 78    
Maximum Humidity 93    
Minimum Humidity 62    
Precipitation  
Precipitation 0.19 in 0.13 in 1.90 in (1968)
Month to date precipitation 2.42 3.45  
Year to date precipitation 11.44 13.43  
Sea Level Pressure  
Sea Level Pressure 30.03 in    
Wind  
Wind Speed 7 mph (SW)    
Max Wind Speed 37 mph    
Max Gust Speed 52 mph    
Visibility 10 miles    
Events Rain , Thunderstorm    
T = Trace of Precipitation, MM = Missing Value Source: NWS Daily Summary

Daily Weather History Graph

Daily Weather History Graph

Search for Another Location

Airport or City:

Astronomy

May. 23, 2019 Rise Set
Actual Time 5:32 AM CDT 8:07 PM CDT
Civil Twilight 5:01 AM CDT 8:38 PM CDT
Nautical Twilight 4:23 AM CDT 9:17 PM CDT
Astronomical Twilight 3:40 AM CDT 10:00 PM CDT
Moon No Moon Rise 9:36 AM CDT (5/23)
Length of Visible Light 15h 36m
Length of Day
14h 34m
Waning Gibbous, 77% of the Moon is Illuminated
May 23
Waning Gibbous
May 26
Last Quarter
Jun 3
New
Jun 10
First Quarter
Jun 17
Full

Hourly Weather History & Observations

Time (CDT) Temp. Heat Index Dew Point Humidity Pressure Visibility Wind Dir Wind Speed Gust Speed Precip Events Conditions
12:53 AM 73.0 °F - 69.1 °F 87% 29.93 in 10.0 mi South 15.0 mph 23.0 mph N/A   Clear
1:53 AM 73.9 °F - 69.1 °F 85% 29.93 in 10.0 mi South 13.8 mph 23.0 mph N/A   Clear
2:19 AM 73.9 °F - 69.1 °F 85% 29.97 in 10.0 mi South 11.5 mph - N/A Thunderstorm Partly Cloudy
2:48 AM 66.2 °F - 62.6 °F 88% 29.98 in 10.0 mi West 26.5 mph 39.1 mph 0.03 in Rain , Thunderstorm Light Thunderstorms and Rain
2:53 AM 66.9 °F - 62.1 °F 84% 29.99 in 8.0 mi West 24.2 mph 39.1 mph 0.05 in Rain , Thunderstorm Thunderstorms and Rain
3:53 AM 68.0 °F - 61.0 °F 78% 29.98 in 7.0 mi WSW 12.7 mph 20.7 mph 0.11 in Rain , Thunderstorm Rain
4:04 AM 68.0 °F - 62.1 °F 81% 30.02 in 8.0 mi WSW 15.0 mph 32.2 mph 0.02 in Rain , Thunderstorm Thunderstorms and Rain
4:38 AM 66.0 °F - 63.0 °F 90% 30.02 in 10.0 mi SW 8.1 mph - 0.03 in Rain , Thunderstorm Light Rain
4:53 AM 66.0 °F - 63.0 °F 90% 30.00 in 10.0 mi SW 8.1 mph - 0.03 in Rain , Thunderstorm Light Rain
5:07 AM 66.9 °F - 63.0 °F 87% 30.03 in 10.0 mi SSW 10.4 mph - 0.00 in Rain Light Rain
5:53 AM 66.9 °F - 64.0 °F 90% 30.02 in 10.0 mi South 6.9 mph - 0.00 in   Mostly Cloudy
6:53 AM 66.9 °F - 64.0 °F 90% 30.02 in 10.0 mi SSW 5.8 mph - N/A   Partly Cloudy
7:53 AM 69.1 °F - 66.0 °F 90% 30.03 in 10.0 mi SSW 5.8 mph - N/A   Clear
8:53 AM 72.0 °F - 66.9 °F 84% 30.05 in 10.0 mi SSW 8.1 mph - N/A   Clear
9:53 AM 73.9 °F - 66.9 °F 79% 30.05 in 10.0 mi WSW 6.9 mph - N/A   Partly Cloudy
10:53 AM 75.0 °F - 68.0 °F 79% 30.06 in 10.0 mi Variable 6.9 mph - N/A   Partly Cloudy
11:53 AM 75.9 °F - 68.0 °F 76% 30.08 in 10.0 mi Variable 4.6 mph - N/A   Overcast
12:42 PM 77.0 °F - 69.1 °F 76% 30.08 in 10.0 mi WSW 8.1 mph - N/A   Mostly Cloudy
12:53 PM 77.0 °F - 69.1 °F 76% 30.06 in 10.0 mi WSW 8.1 mph - N/A   Mostly Cloudy
1:53 PM 79.0 °F - 70.0 °F 74% 30.05 in 10.0 mi SW 8.1 mph - N/A   Mostly Cloudy
2:53 PM 80.1 °F 82.9 °F 69.1 °F 69% 30.04 in 10.0 mi WSW 8.1 mph 18.4 mph N/A   Scattered Clouds
3:53 PM 82.0 °F 84.9 °F 68.0 °F 62% 30.04 in 10.0 mi West 8.1 mph - N/A   Scattered Clouds
4:53 PM 82.0 °F 84.9 °F 68.0 °F 62% 30.05 in 10.0 mi West 5.8 mph - N/A   Partly Cloudy
5:53 PM 80.1 °F 82.3 °F 66.9 °F 64% 30.05 in 10.0 mi West 11.5 mph - N/A   Clear
6:53 PM 78.1 °F - 66.9 °F 68% 30.05 in 10.0 mi West 8.1 mph - N/A   Clear
7:53 PM 73.9 °F - 66.9 °F 79% 30.05 in 10.0 mi WNW 6.9 mph - N/A   Clear
8:53 PM 72.0 °F - 66.0 °F 81% 30.06 in 10.0 mi NW 3.5 mph - N/A   Clear
9:53 PM 71.1 °F - 66.9 °F 87% 30.07 in 10.0 mi South 3.5 mph - N/A   Clear
10:53 PM 69.1 °F - 66.9 °F 93% 30.07 in 10.0 mi Calm Calm - N/A   Partly Cloudy
11:53 PM 66.9 °F - 64.9 °F 93% 30.06 in 10.0 mi Calm Calm - N/A   Clear